ZACUBE-1 (TSHEPISOSAT)

Last updated on Wed Sep 17 2025 00:03:09 GMT+0000 (Coordinated Universal Time)

1 39417U 13066B 25259.44174845 .00006227 00000+0 52748-3 0 9995 2 39417 97.7905 216.0314 0045883 81.9612 278.6812 14.97526757639707
UTC large
Height (km)
Speed (km/s)
/
Latitude / Longitude
Inclination (degrees)
Orbital Period (minutes)
Azimuth
Elevation
Range (km)
Doppler Factor

Next 0 passes for location: London (51.5072 / 0.1276)

Sorry there are no passes over London.